Location: Rounton
(54.4000°N, 1.3500°W)
Time: 05:58:16
(UTC+00:00)

A-11 Canister half - Pass Details

Date: 09 December 2021
Orbit: 1516 x 1684 km, 47.2° (Epoch: 21 January)

Event Time Altitude Azimuth Distance (km) Brightness Sun altitude
Rises 13:35:55 0° 283° (WNW) 4,898 11.8 9.9°
Reaches altitude 10° 13:41:46 10° 257° (WSW) 3,931 11.8 9.6°
Maximum altitude 13:45:14 12° 236° (SW) 3,754 12.2 9.4°
Drops below altitude 10° 13:48:43 10° 215° (SW) 3,941 13.6 9.1°
Sets 13:54:40 0° 189° (S) 4,924 13.3 8.8°
